| time (UTC) | temp C | wind direction | speed KPH | gust KPH | rain 1hr cm | rain 24hr cm | rain mn cm | humidity % | barometer mb |
| 20260510164546 | 26 | 113 | 0.0 | 14.5 | 0.00 | 0.00 | 0.00 | 31 | 1014.6 |
| 20260510163027 | 25 | 45 | 1.6 | 16.1 | 0.00 | 0.00 | 0.00 | 36 | 1014.8 |
| 20260510161552 | 25 | 45 | 0.0 | 0.0 | 0.00 | 0.00 | 0.00 | 34 | 1014.9 |
| 20260510160056 | 25 | 73 | 9.7 | 25.7 | 0.00 | 0.00 | 0.00 | 35 | 1014.9 |
| 20260510154502 | 25 | 130 | 3.2 | 16.1 | 0.00 | 0.00 | 0.00 | 36 | 1015.0 |
| 20260510153050 | 25 | 70 | 4.8 | 17.7 | 0.00 | 0.00 | 0.00 | 34 | 1015.0 |
| 20260510151503 | 25 | 62 | 0.0 | 19.3 | 0.00 | 0.00 | 0.00 | 36 | 1015.2 |
| 20260510150002 | 25 | 105 | 3.2 | 24.1 | 0.00 | 0.00 | 0.00 | 36 | 1015.0 |
| 20260510144521 | 25 | 118 | 0.0 | 16.1 | 0.00 | 0.00 | 0.00 | 36 | 1015.1 |
| 20260510143018 | 24 | 136 | 0.0 | 14.5 | 0.00 | 0.00 | 0.00 | 37 | 1015.1 |
| 20260510141525 | 23 | 87 | 0.0 | 16.1 | 0.00 | 0.00 | 0.00 | 39 | 1015.0 |
| 20260510140020 | 23 | 130 | 1.6 | 19.3 | 0.00 | 0.00 | 0.00 | 41 | 1015.4 |
| 20260510134541 | 22 | 86 | 0.0 | 14.5 | 0.00 | 0.00 | 0.00 | 42 | 1015.2 |
| 20260510133041 | 21 | 118 | 8.0 | 17.7 | 0.00 | 0.00 | 0.00 | 45 | 1015.2 |
| 20260510131604 | 21 | 143 | 1.6 | 16.1 | 0.00 | 0.00 | 0.00 | 49 | 1015.1 |
| 20260510130057 | 18 | 106 | 0.0 | 0.0 | 0.00 | 0.00 | 0.00 | 61 | 1015.0 |
| 20260510124516 | 17 | 106 | 0.0 | 0.0 | 0.00 | 0.00 | 0.00 | 66 | 1015.0 |
| 20260510123025 | 15 | 106 | 0.0 | 0.0 | 0.00 | 0.00 | 0.00 | 71 | 1015.0 |
| 20260510121542 | 14 | 106 | 0.0 | 0.0 | 0.00 | 0.00 | 0.00 | 73 | 1015.0 |
| 20260510120039 | 13 | 106 | 0.0 | 0.0 | 0.00 | 0.00 | 0.00 | 78 | 1015.0 |
| 20260510114511 | 12 | 106 | 0.0 | 0.0 | 0.00 | 0.00 | 0.00 | 84 | 1014.6 |
| 20260510113003 | 11 | 106 | 0.0 | 0.0 | 0.00 | 0.00 | 0.00 | 86 | 1014.6 |
| 20260510111531 | 10 | 106 | 0.0 | 0.0 | 0.00 | 0.00 | 0.00 | 85 | 1014.1 |
| 20260510110021 | 10 | 106 | 0.0 | 0.0 | 0.00 | 0.00 | 0.00 | 84 | 1014.0 |
| 20260510104527 | 9 | 106 | 0.0 | 0.0 | 0.00 | 0.00 | 0.00 | 84 | 1013.9 |
| 20260510103035 | 9 | 106 | 0.0 | 0.0 | 0.00 | 0.00 | 0.00 | 83 | 1013.5 |
| 20260510101547 | 9 | 106 | 0.0 | 0.0 | 0.00 | 0.00 | 0.00 | 83 | 1013.4 |
| 20260510100051 | 9 | 106 | 0.0 | 0.0 | 0.00 | 0.00 | 0.00 | 83 | 1013.4 |
| 20260510094515 | 9 | 106 | 0.0 | 0.0 | 0.00 | 0.00 | 0.00 | 83 | 1013.2 |
| 20260510093017 | 10 | 106 | 0.0 | 0.0 | 0.00 | 0.00 | 0.00 | 82 | 1013.0 |
| 20260510091552 | 10 | 105 | 0.0 | 0.0 | 0.00 | 0.00 | 0.00 | 82 | 1012.9 |
| 20260510084511 | 10 | 105 | 0.0 | 0.0 | 0.00 | 0.00 | 0.00 | 82 | 1012.8 |
| 20260510083009 | 10 | 105 | 0.0 | 0.0 | 0.00 | 0.00 | 0.00 | 82 | 1012.9 |
| 20260510081535 | 10 | 105 | 0.0 | 0.0 | 0.00 | 0.00 | 0.00 | 81 | 1012.5 |
| 20260510080036 | 10 | 105 | 0.0 | 0.0 | 0.00 | 0.00 | 0.00 | 80 | 1012.4 |
| 20260510074553 | 10 | 105 | 0.0 | 0.0 | 0.00 | 0.00 | 0.00 | 81 | 1012.2 |
| 20260510073042 | 10 | 105 | 0.0 | 0.0 | 0.00 | 0.00 | 0.00 | 80 | 1012.3 |
| 20260510071511 | 10 | 105 | 0.0 | 0.0 | 0.00 | 0.00 | 0.00 | 79 | 1012.1 |
| 20260510070022 | 11 | 105 | 0.0 | 0.0 | 0.00 | 0.00 | 0.00 | 78 | 1012.1 |
| 20260510064553 | 11 | 105 | 0.0 | 0.0 | 0.00 | 0.00 | 0.00 | 77 | 1012.2 |
| 20260510063043 | 11 | 105 | 0.0 | 0.0 | 0.00 | 0.00 | 0.00 | 77 | 1012.3 |
| 20260510061553 | 11 | 105 | 0.0 | 0.0 | 0.00 | 0.00 | 0.00 | 77 | 1012.4 |
| 20260510060045 | 11 | 105 | 0.0 | 0.0 | 0.00 | 0.00 | 0.00 | 75 | 1012.4 |
| 20260510054600 | 12 | 105 | 0.0 | 0.0 | 0.00 | 0.00 | 0.00 | 74 | 1012.4 |
| 20260510053056 | 12 | 105 | 0.0 | 0.0 | 0.00 | 0.00 | 0.00 | 73 | 1012.4 |
| 20260510051517 | 12 | 105 | 0.0 | 0.0 | 0.00 | 0.00 | 0.00 | 73 | 1012.4 |
| 20260510050026 | 12 | 105 | 0.0 | 0.0 | 0.00 | 0.00 | 0.00 | 71 | 1012.4 |
| 20260510044531 | 13 | 105 | 0.0 | 0.0 | 0.00 | 0.00 | 0.00 | 70 | 1012.3 |
| 20260510043019 | 13 | 105 | 0.0 | 0.0 | 0.00 | 0.00 | 0.00 | 71 | 1012.3 |
| 20260510041540 | 13 | 105 | 0.0 | 0.0 | 0.00 | 0.00 | 0.00 | 70 | 1012.2 |
| 20260510040048 | 13 | 105 | 0.0 | 0.0 | 0.00 | 0.00 | 0.00 | 68 | 1012.3 |
| 20260510034602 | 13 | 105 | 0.0 | 0.0 | 0.00 | 0.00 | 0.00 | 67 | 1012.2 |
| 20260510033049 | 14 | 105 | 0.0 | 0.0 | 0.00 | 0.00 | 0.00 | 65 | 1011.8 |
| 20260510031502 | 15 | 105 | 0.0 | 0.0 | 0.00 | 0.00 | 0.00 | 63 | 1011.8 |
| 20260510030010 | 15 | 105 | 0.0 | 0.0 | 0.00 | 0.00 | 0.00 | 60 | 1011.8 |
| 20260510024533 | 16 | 105 | 0.0 | 0.0 | 0.00 | 0.00 | 0.00 | 58 | 1011.6 |
| 20260510023030 | 16 | 105 | 0.0 | 0.0 | 0.00 | 0.00 | 0.00 | 57 | 1011.3 |
| 20260510021542 | 16 | 105 | 0.0 | 0.0 | 0.00 | 0.00 | 0.00 | 56 | 1011.2 |
| 20260510020046 | 16 | 106 | 0.0 | 0.0 | 0.00 | 0.00 | 0.00 | 55 | 1011.0 |
| 20260510014515 | 17 | 106 | 0.0 | 0.0 | 0.00 | 0.00 | 0.00 | 54 | 1010.7 |
| 20260510013017 | 17 | 106 | 0.0 | 0.0 | 0.00 | 0.00 | 0.00 | 53 | 1010.2 |
| 20260510011545 | 18 | 106 | 0.0 | 0.0 | 0.00 | 0.00 | 0.00 | 51 | 1010.2 |
| 20260510010040 | 18 | 106 | 0.0 | 0.0 | 0.00 | 0.00 | 0.00 | 49 | 1010.1 |
| 20260510004510 | 18 | 106 | 0.0 | 0.0 | 0.00 | 0.00 | 0.00 | 47 | 1010.0 |
| 20260510003008 | 20 | 106 | 0.0 | 0.0 | 0.00 | 0.00 | 0.00 | 45 | 1010.1 |
| 20260510001521 | 21 | 106 | 0.0 | 0.0 | 0.00 | 0.00 | 0.00 | 42 | 1009.7 |
| 20260510000016 | 22 | 106 | 0.0 | 0.0 | 0.00 | 0.00 | 0.00 | 39 | 1009.4 |
| 20260509234534 | 22 | 101 | 0.0 | 0.0 | 0.00 | 0.00 | 0.00 | 35 | 1009.1 |
| 20260509233040 | 23 | 101 | 0.0 | 11.3 | 0.00 | 0.00 | 0.00 | 32 | 1009.1 |
| 20260509231608 | 23 | 112 | 0.0 | 1.6 | 0.00 | 0.00 | 0.00 | 31 | 1008.9 |
| 20260509224604 | 23 | 123 | 0.0 | 14.5 | 0.00 | 0.00 | 0.00 | 30 | 1008.9 |
| 20260509224501 | 23 | 59 | 0.0 | 14.5 | 0.00 | 0.00 | 0.00 | 30 | 1008.9 |
| 20260509223007 | 23 | 116 | 3.2 | 14.5 | 0.00 | 0.00 | 0.00 | 32 | 1008.7 |
| 20260509221540 | 23 | 105 | 0.0 | 11.3 | 0.00 | 0.00 | 0.00 | 32 | 1008.6 |
| 20260509220034 | 24 | 97 | 0.0 | 0.0 | 0.00 | 0.00 | 0.00 | 32 | 1008.6 |
| 20260509214508 | 24 | 103 | 0.0 | 0.0 | 0.00 | 0.00 | 0.00 | 32 | 1008.6 |
| 20260509213005 | 25 | 97 | 1.6 | 19.3 | 0.00 | 0.00 | 0.00 | 30 | 1008.4 |
| 20260509211515 | 25 | 22 | 0.0 | 17.7 | 0.00 | 0.00 | 0.00 | 29 | 1008.4 |
| 20260509210029 | 25 | 105 | 3.2 | 20.9 | 0.00 | 0.00 | 0.00 | 27 | 1008.3 |
| 20260509204557 | 26 | 98 | 1.6 | 20.9 | 0.00 | 0.00 | 0.00 | 27 | 1008.1 |
| 20260509203054 | 25 | 72 | 0.0 | 22.5 | 0.00 | 0.00 | 0.00 | 29 | 1008.1 |
| 20260509201513 | 24 | 119 | 0.0 | 29.0 | 0.00 | 0.00 | 0.00 | 29 | 1008.1 |
| 20260509200015 | 25 | 107 | 3.2 | 20.9 | 0.00 | 0.00 | 0.00 | 28 | 1008.2 |
| 20260509194533 | 25 | 78 | 4.8 | 17.7 | 0.00 | 0.00 | 0.00 | 30 | 1008.1 |
| 20260509193046 | 25 | 57 | 4.8 | 22.5 | 0.00 | 0.00 | 0.00 | 30 | 1008.3 |
| 20260509191557 | 24 | 71 | 1.6 | 12.9 | 0.00 | 0.00 | 0.00 | 31 | 1008.4 |
| 20260509190059 | 25 | 180 | 0.0 | 11.3 | 0.00 | 0.00 | 0.00 | 30 | 1008.5 |
| 20260509184515 | 25 | 56 | 1.6 | 12.9 | 0.00 | 0.00 | 0.00 | 28 | 1008.6 |
| 20260509183027 | 25 | 103 | 0.0 | 9.7 | 0.00 | 0.00 | 0.00 | 32 | 1008.8 |
| 20260509181521 | 23 | 1 | 0.0 | 8.0 | 0.00 | 0.00 | 0.00 | 37 | 1009.1 |
| 20260509180022 | 25 | 316 | 1.6 | 11.3 | 0.00 | 0.00 | 0.00 | 35 | 1009.2 |
| 20260509174535 | 23 | 95 | 0.0 | 0.0 | 0.00 | 0.00 | 0.00 | 40 | 1009.4 |
| 20260509173030 | 23 | 37 | 0.0 | 1.6 | 0.00 | 0.00 | 0.00 | 42 | 1009.6 |
| 20260509171546 | 23 | 280 | 0.0 | 0.0 | 0.00 | 0.00 | 0.00 | 44 | 1009.8 |